Home   Weather   Port St. Lucie   Past weeks

Flag for USA Past Weather in Port St. Lucie, Florida, USA — Yesterday and Last 2 Weeks

Now
72 °F

Partly cloudy.


Feels Like: 67 °F
Forecast: 64 / 79 °F
Wind: 6 mph from Northwest

Location: Witham Field Airport

Current Time: Dec 7, 2016 at 7:35:23 am

Latest Report: Dec 7, 2016 at 6:47 am


Visibility: 7 mi

Pressure: 30.05 "Hg

Humidity: 94%

Dew Point: 70 °F

Location of Port St. LucieLocation

Past Weather in Port St. Lucie — Graph

°F

Port St. Lucie Temperature Yesterday

Maximum temperature yesterday: 90 °F (at 12:47 pm)
Minimum temperature yesterday: 73 °F (at 11:55 pm)
Average temperature yesterday: 79 °F

High & Low Weather Summary for the Past Weeks

 TemperatureHumidityPressure
High90 °F (Dec 1, 12:47 pm)100% (Nov 26, 5:15 am)30.25 "Hg (Nov 26, 5:15 am)
Low59 °F (Nov 22, 6:15 am)42% (Nov 27, 10:47 am)29.89 "Hg (Dec 6, 2:47 pm)
Average75 °F75%30.07 "Hg
* Reported Nov 22 6:15 am — Dec 7 6:15 am, Port St. Lucie, Weather by CustomWeather, © 2016

Note: Actual official high and low records may vary slightly from our data, if they occured in-between our weather recording intervals... More about our weather records

Advertising

Port St. Lucie Weather History for the Previous 24 Hours

Scroll right to see more
 ConditionsComfort  
Time TempWeatherWind HumidityBarometerVisibility
6:15 am
Wed, Dec 7
72 °FFog.No wind94%30.04 "Hg5 mi
5:55 am72 °FPassing clouds.No wind94%30.03 "Hg7 mi
5:35 am72 °FLow clouds.3 mph94%30.02 "Hg7 mi
5:15 am72 °FMostly cloudy.No wind94%30.02 "Hg7 mi
4:55 am72 °FPassing clouds.No wind94%30.01 "Hg7 mi
4:35 am72 °FMostly cloudy.No wind100%30.00 "Hg7 mi
4:15 am73 °FFog.5 mph94%30.00 "Hg5 mi
3:55 am73 °FFog.5 mph94%29.99 "Hg5 mi
3:15 am73 °FFog.5 mph94%29.98 "Hg5 mi
2:55 am73 °FFog.5 mph94%29.98 "Hg5 mi
2:15 am73 °FPassing clouds.5 mph94%29.98 "Hg7 mi
1:55 am73 °FPassing clouds.5 mph100%29.98 "Hg7 mi
1:35 am75 °FLow clouds.5 mph94%29.98 "Hg7 mi
1:15 am75 °FLow clouds.5 mph94%29.98 "Hg7 mi
12:55 am75 °FLow clouds.5 mph94%29.98 "Hg7 mi
12:15 am73 °FPartly cloudy.3 mph94%29.98 "Hg10 mi
11:55 pm
Tue, Dec 6
73 °FMostly cloudy.5 mph100%29.98 "Hg10 mi
11:15 pm75 °FMostly cloudy.7 mph94%29.99 "Hg10 mi
10:55 pm75 °FMostly cloudy.5 mph94%29.99 "Hg10 mi
10:15 pm75 °FMostly cloudy.7 mph94%29.99 "Hg10 mi
8:47 pm75 °FThundershowers. Partly cloudy.5 mph94%29.97 "Hg7 mi
4:47 pm84 °FScattered clouds.9 mph70%29.91 "Hg7 mi
3:47 pm90 °FBroken clouds.15 mph59%29.89 "Hg7 mi
2:47 pm90 °FBroken clouds.15 mph59%29.89 "Hg7 mi
1:47 pm90 °FScattered clouds.12 mph59%29.90 "Hg7 mi
12:47 pm90 °FBroken clouds.12 mph59%29.92 "Hg7 mi
11:47 am86 °FBroken clouds.16 mph66%29.96 "Hg7 mi
10:47 am86 °FBroken clouds.16 mph70%29.98 "Hg7 mi
9:47 am84 °FWarm.N/A74%29.98 "HgN/A
8:47 am81 °FScattered clouds.14 mph84%29.98 "Hg7 mi
7:47 am79 °FSunny.9 mph89%29.98 "Hg7 mi
7:00 am77 °FSunny.9 mph89%29.94 "Hg7 mi
Weather by CustomWeather, © 2016

See weather overviewHow to use our weather pages